| time (UTC) | temp F | wind direction | speed knots | gust knots | rain 1hr in | rain 24hr in | rain mn in | humidity % | barometer mb |
| 20260506165111 | 57 | 5 | 2.6 | 7.8 | 0.21 | 0.94 | 0.80 | 90 | 1004.3 |
| 20260506164111 | 58 | 5 | 0.9 | 7.0 | 0.20 | 0.92 | 0.79 | 90 | 1004.2 |
| 20260506163110 | 58 | 22 | 3.5 | 8.7 | 0.17 | 0.88 | 0.75 | 89 | 1004.0 |
| 20260506162111 | 59 | 47 | 4.3 | 8.7 | 0.12 | 0.80 | 0.66 | 88 | 1004.2 |
| 20260506161111 | 60 | 63 | 1.7 | 7.8 | 0.06 | 0.73 | 0.60 | 87 | 1004.1 |
| 20260506160111 | 60 | 342 | 2.6 | 7.0 | 0.06 | 0.72 | 0.59 | 87 | 1003.8 |
| 20260506155111 | 61 | 23 | 2.6 | 8.7 | 0.06 | 0.72 | 0.59 | 87 | 1003.8 |
| 20260506154111 | 61 | 87 | 1.7 | 6.1 | 0.05 | 0.72 | 0.58 | 86 | 1003.7 |
| 20260506153111 | 62 | 28 | 3.5 | 7.0 | 0.05 | 0.72 | 0.58 | 84 | 1003.6 |
| 20260506152111 | 63 | 26 | 1.7 | 5.2 | 0.01 | 0.68 | 0.54 | 82 | 1003.7 |
| 20260506151110 | 64 | 26 | 1.7 | 7.0 | 0.00 | 0.67 | 0.54 | 79 | 1003.7 |
| 20260506150111 | 65 | 40 | 3.5 | 7.8 | 0.00 | 0.67 | 0.54 | 77 | 1003.7 |
| 20260506145111 | 65 | 61 | 0.9 | 6.1 | 0.00 | 0.67 | 0.54 | 77 | 1003.7 |
| 20260506144110 | 65 | 345 | 4.3 | 7.8 | 0.00 | 0.67 | 0.54 | 77 | 1003.8 |
| 20260506143112 | 65 | 5 | 4.3 | 8.7 | 0.00 | 0.67 | 0.54 | 78 | 1003.8 |
| 20260506142111 | 65 | 22 | 4.3 | 9.6 | 0.00 | 0.67 | 0.54 | 77 | 1003.7 |
| 20260506141111 | 69 | 36 | 3.5 | 8.7 | 0.00 | 0.67 | 0.54 | 71 | 1003.9 |
| 20260506140111 | 70 | 341 | 3.5 | 7.0 | 0.00 | 0.67 | 0.54 | 64 | 1004.0 |
| 20260506135111 | 72 | 9 | 0.0 | 5.2 | 0.00 | 0.67 | 0.54 | 60 | 1004.0 |
| 20260506134112 | 71 | 219 | 2.6 | 3.5 | 0.00 | 0.67 | 0.54 | 60 | 1004.2 |
| 20260506133111 | 71 | 292 | 0.9 | 3.5 | 0.00 | 0.67 | 0.54 | 65 | 1004.2 |
| 20260506132111 | 69 | 281 | 0.0 | 0.0 | 0.00 | 0.67 | 0.54 | 65 | 1004.2 |
| 20260506131110 | 68 | 157 | 0.9 | 4.3 | 0.00 | 0.67 | 0.54 | 66 | 1004.3 |
| 20260506130111 | 68 | 219 | 0.0 | 0.0 | 0.00 | 0.67 | 0.54 | 70 | 1004.4 |
| 20260506125111 | 67 | 271 | 0.0 | 1.7 | 0.00 | 0.67 | 0.54 | 70 | 1004.3 |
| 20260506124111 | 67 | 248 | 2.6 | 5.2 | 0.00 | 0.67 | 0.54 | 69 | 1004.4 |
| 20260506123111 | 66 | 196 | 1.7 | 6.1 | 0.00 | 0.67 | 0.54 | 70 | 1004.3 |
| 20260506122112 | 66 | 267 | 2.6 | 7.0 | 0.00 | 0.67 | 0.54 | 72 | 1004.2 |
| 20260506121110 | 67 | 196 | 0.9 | 5.2 | 0.00 | 0.67 | 0.54 | 72 | 1004.3 |
| 20260506120111 | 67 | 205 | 1.7 | 5.2 | 0.00 | 0.67 | 0.54 | 71 | 1004.2 |
| 20260506115111 | 67 | 262 | 0.9 | 4.3 | 0.00 | 0.67 | 0.54 | 73 | 1004.2 |
| 20260506114111 | 66 | 45 | 0.0 | 0.0 | 0.00 | 0.67 | 0.54 | 76 | 1004.1 |
| 20260506113112 | 65 | 288 | 0.0 | 0.0 | 0.00 | 0.67 | 0.54 | 78 | 1004.2 |
| 20260506112111 | 65 | 271 | 0.0 | 0.0 | 0.00 | 0.67 | 0.54 | 77 | 1004.2 |
| 20260506111111 | 64 | 288 | 0.0 | 0.0 | 0.00 | 0.67 | 0.54 | 80 | 1004.4 |
| 20260506110110 | 64 | 256 | 0.0 | 0.0 | 0.00 | 0.67 | 0.54 | 80 | 1004.5 |
| 20260506105111 | 63 | 251 | 0.0 | 0.0 | 0.00 | 0.67 | 0.54 | 79 | 1004.5 |
| 20260506104110 | 63 | 250 | 0.0 | 0.0 | 0.00 | 0.67 | 0.54 | 80 | 1004.6 |
| 20260506103111 | 63 | 251 | 0.0 | 0.0 | 0.00 | 0.67 | 0.54 | 81 | 1004.6 |
| 20260506102111 | 62 | 250 | 0.0 | 0.0 | 0.00 | 0.67 | 0.54 | 81 | 1004.6 |
| 20260506101110 | 62 | 252 | 0.0 | 0.0 | 0.00 | 0.67 | 0.54 | 83 | 1004.5 |
| 20260506100111 | 61 | 252 | 0.0 | 0.0 | 0.00 | 0.67 | 0.54 | 84 | 1004.5 |
| 20260506095111 | 60 | 250 | 0.9 | 2.6 | 0.00 | 0.67 | 0.54 | 86 | 1004.3 |
| 20260506094111 | 60 | 278 | 0.9 | 1.7 | 0.00 | 0.67 | 0.54 | 86 | 1004.3 |
| 20260506093111 | 59 | 277 | 0.9 | 3.5 | 0.00 | 0.67 | 0.54 | 89 | 1004.2 |
| 20260506092111 | 59 | 75 | 0.0 | 0.0 | 0.00 | 0.67 | 0.54 | 91 | 1004.3 |
| 20260506091110 | 58 | 76 | 0.0 | 1.7 | 0.00 | 0.67 | 0.54 | 92 | 1004.2 |
| 20260506090111 | 57 | 40 | 1.7 | 3.5 | 0.00 | 0.67 | 0.54 | 92 | 1004.2 |
| 20260506085111 | 56 | 41 | 0.0 | 0.0 | 0.00 | 0.67 | 0.54 | 92 | 1004.1 |
| 20260506084111 | 55 | 41 | 0.0 | 0.0 | 0.00 | 0.67 | 0.54 | 92 | 1004.2 |
| 20260506083111 | 55 | 38 | 0.0 | 0.0 | 0.00 | 0.67 | 0.54 | 92 | 1004.2 |
| 20260506082110 | 55 | 37 | 0.0 | 0.0 | 0.00 | 0.67 | 0.54 | 92 | 1004.1 |
| 20260506081110 | 55 | 36 | 0.0 | 0.0 | 0.00 | 0.67 | 0.54 | 92 | 1004.0 |
| 20260506080110 | 55 | 34 | 0.0 | 0.0 | 0.00 | 0.67 | 0.54 | 92 | 1004.0 |
| 20260506073111 | 55 | 33 | 0.0 | 0.0 | 0.01 | 0.67 | 0.54 | 91 | 1004.0 |
| 20260506072111 | 55 | 32 | 0.0 | 0.0 | 0.01 | 0.67 | 0.54 | 91 | 1004.0 |
| 20260506071110 | 55 | 33 | 0.0 | 0.0 | 0.01 | 0.67 | 0.54 | 92 | 1004.0 |
| 20260506070111 | 55 | 24 | 0.9 | 1.7 | 0.01 | 0.67 | 0.54 | 92 | 1004.1 |
| 20260506062111 | 54 | 261 | 0.0 | 0.0 | 0.00 | 0.66 | 0.53 | 92 | 1004.1 |
| 20260506061110 | 55 | 260 | 0.0 | 0.0 | 0.00 | 0.66 | 0.53 | 93 | 1004.1 |
| 20260506060110 | 54 | 260 | 0.0 | 0.0 | 0.00 | 0.66 | 0.53 | 93 | 1004.1 |
| 20260506051111 | 54 | 259 | 0.0 | 2.6 | 0.00 | 0.66 | 0.53 | 93 | 1003.8 |
| 20260506050110 | 54 | 258 | 0.9 | 2.6 | 0.00 | 0.66 | 0.53 | 93 | 1003.8 |
| 20260506045111 | 54 | 254 | 0.0 | 2.6 | 0.00 | 0.66 | 0.53 | 93 | 1003.9 |
| 20260506044111 | 54 | 253 | 0.0 | 0.0 | 0.00 | 0.66 | 0.53 | 93 | 1003.9 |
| 20260506043111 | 53 | 253 | 0.0 | 0.0 | 0.00 | 0.66 | 0.53 | 93 | 1003.9 |
| 20260506042111 | 53 | 253 | 0.0 | 1.7 | 0.00 | 0.66 | 0.53 | 93 | 1003.9 |
| 20260506041111 | 53 | 253 | 0.0 | 2.6 | 0.00 | 0.66 | 0.53 | 93 | 1003.9 |
| 20260506040110 | 53 | 264 | 1.7 | 2.6 | 0.00 | 0.66 | 0.53 | 93 | 1003.7 |
| 20260506035111 | 53 | 284 | 0.0 | 0.0 | 0.01 | 0.68 | 0.53 | 93 | 1003.6 |
| 20260506034111 | 53 | 284 | 0.0 | 0.0 | 0.02 | 0.68 | 0.53 | 93 | 1003.6 |
| 20260506033111 | 53 | 284 | 0.0 | 0.0 | 0.02 | 0.68 | 0.53 | 93 | 1003.7 |
| 20260506032111 | 53 | 283 | 0.0 | 0.0 | 0.03 | 0.68 | 0.53 | 93 | 1003.7 |
| 20260506031111 | 53 | 284 | 0.0 | 0.0 | 0.04 | 0.68 | 0.53 | 93 | 1003.8 |
| 20260506030111 | 53 | 284 | 0.0 | 2.6 | 0.04 | 0.68 | 0.53 | 93 | 1003.9 |
| 20260506025110 | 53 | 284 | 0.9 | 3.5 | 0.04 | 0.67 | 0.52 | 93 | 1003.9 |
| 20260506024111 | 53 | 270 | 0.9 | 2.6 | 0.04 | 0.66 | 0.51 | 93 | 1003.9 |
| 20260506023111 | 53 | 340 | 1.7 | 3.5 | 0.04 | 0.65 | 0.50 | 92 | 1004.1 |
| 20260506022111 | 54 | 348 | 0.9 | 3.5 | 0.04 | 0.65 | 0.50 | 92 | 1004.0 |
| 20260506021110 | 54 | 299 | 0.9 | 5.2 | 0.04 | 0.64 | 0.49 | 92 | 1004.1 |
| 20260506020110 | 54 | 337 | 2.6 | 7.0 | 0.05 | 0.64 | 0.49 | 93 | 1004.0 |
| 20260506015110 | 54 | 305 | 1.7 | 3.5 | 0.06 | 0.63 | 0.48 | 93 | 1004.2 |
| 20260506014110 | 54 | 322 | 0.0 | 0.0 | 0.08 | 0.62 | 0.47 | 92 | 1004.4 |
| 20260506013110 | 54 | 322 | 0.0 | 0.0 | 0.10 | 0.61 | 0.46 | 92 | 1004.4 |
| 20260506012110 | 54 | 329 | 0.0 | 0.0 | 0.18 | 0.61 | 0.46 | 92 | 1004.5 |
| 20260506011110 | 54 | 329 | 0.0 | 3.5 | 0.24 | 0.60 | 0.45 | 92 | 1004.5 |
| 20260506010110 | 54 | 296 | 1.7 | 4.3 | 0.24 | 0.59 | 0.44 | 92 | 1004.4 |
| 20260506005111 | 54 | 297 | 0.0 | 3.5 | 0.24 | 0.57 | 0.43 | 92 | 1004.4 |
| 20260506004110 | 55 | 290 | 1.7 | 5.2 | 0.24 | 0.54 | 0.39 | 92 | 1004.4 |
| 20260506003111 | 55 | 313 | 2.6 | 6.1 | 0.22 | 0.51 | 0.36 | 92 | 1004.4 |
| 20260506002111 | 55 | 314 | 1.7 | 5.2 | 0.15 | 0.43 | 0.28 | 92 | 1004.5 |
| 20260506001110 | 55 | 290 | 3.5 | 7.0 | 0.10 | 0.36 | 0.21 | 92 | 1004.5 |
| 20260506000110 | 56 | 321 | 2.6 | 5.2 | 0.10 | 0.35 | 0.20 | 92 | 1004.5 |
| 20260505235110 | 56 | 344 | 0.9 | 7.0 | 0.11 | 0.33 | 0.18 | 92 | 1004.7 |
| 20260505234110 | 56 | 313 | 0.0 | 2.6 | 0.11 | 0.31 | 0.16 | 92 | 1004.7 |
| 20260505233111 | 56 | 355 | 0.9 | 3.5 | 0.11 | 0.29 | 0.14 | 92 | 1004.8 |
| 20260505232110 | 56 | 302 | 1.7 | 6.1 | 0.11 | 0.28 | 0.13 | 92 | 1004.7 |
| 20260505231110 | 56 | 360 | 0.9 | 5.2 | 0.10 | 0.26 | 0.11 | 92 | 1004.8 |
| 20260505230110 | 56 | 331 | 1.7 | 7.0 | 0.09 | 0.24 | 0.09 | 92 | 1004.8 |
| 20260505225111 | 56 | 313 | 0.9 | 3.5 | 0.08 | 0.22 | 0.07 | 92 | 1004.8 |
| 20260505224110 | 57 | 348 | 0.9 | 3.5 | 0.07 | 0.20 | 0.05 | 92 | 1004.9 |
| 20260505223110 | 57 | 18 | 1.7 | 5.2 | 0.07 | 0.18 | 0.03 | 92 | 1005.0 |
| 20260505222110 | 57 | 22 | 0.9 | 5.2 | 0.06 | 0.17 | 0.02 | 91 | 1005.1 |
| 20260505221110 | 57 | 322 | 1.7 | 4.3 | 0.07 | 0.16 | 0.01 | 91 | 1005.1 |
| 20260505220110 | 58 | 355 | 0.9 | 3.5 | 0.08 | 0.16 | 0.01 | 91 | 1005.2 |
| 20260505215110 | 58 | 342 | 0.9 | 3.5 | 0.08 | 0.14 | 0.14 | 91 | 1005.4 |
| 20260505214111 | 58 | 341 | 2.6 | 6.1 | 0.07 | 0.13 | 0.13 | 91 | 1005.4 |
| 20260505213111 | 58 | 360 | 1.7 | 6.1 | 0.06 | 0.11 | 0.11 | 91 | 1005.4 |
| 20260505212110 | 58 | 46 | 2.6 | 6.1 | 0.06 | 0.10 | 0.10 | 91 | 1005.4 |
| 20260505211110 | 58 | 26 | 3.5 | 6.1 | 0.06 | 0.09 | 0.09 | 90 | 1005.5 |
| 20260505210121 | 59 | 321 | 1.7 | 4.3 | 0.06 | 0.08 | 0.08 | 90 | 1005.6 |
| 20260505205110 | 59 | 17 | 0.0 | 1.7 | 0.04 | 0.06 | 0.06 | 89 | 1005.7 |
| 20260505204109 | 59 | 15 | 0.0 | 1.7 | 0.03 | 0.06 | 0.06 | 89 | 1005.7 |
| 20260505203110 | 59 | 15 | 0.9 | 2.6 | 0.02 | 0.05 | 0.05 | 89 | 1005.7 |
| 20260505202110 | 59 | 10 | 0.0 | 1.7 | 0.02 | 0.03 | 0.03 | 89 | 1005.7 |
| 20260505201110 | 59 | 57 | 0.0 | 2.6 | 0.02 | 0.03 | 0.03 | 88 | 1005.6 |
| 20260505200111 | 59 | 134 | 0.0 | 1.7 | 0.01 | 0.02 | 0.02 | 88 | 1005.4 |
| 20260505195111 | 59 | 30 | 0.9 | 5.2 | 0.01 | 0.03 | 0.02 | 88 | 1005.3 |
| 20260505194111 | 60 | 340 | 1.7 | 4.3 | 0.01 | 0.03 | 0.02 | 87 | 1005.2 |
| 20260505193111 | 60 | 24 | 0.9 | 5.2 | 0.01 | 0.03 | 0.02 | 87 | 1005.3 |
| 20260505192111 | 60 | 355 | 1.7 | 4.3 | 0.00 | 0.02 | 0.02 | 86 | 1005.1 |
| 20260505191110 | 60 | 344 | 1.7 | 7.0 | 0.00 | 0.02 | 0.02 | 85 | 1005.1 |
| 20260505190110 | 61 | 13 | 2.6 | 7.0 | 0.00 | 0.02 | 0.02 | 84 | 1005.2 |
| 20260505185110 | 61 | 360 | 2.6 | 7.0 | 0.00 | 0.02 | 0.02 | 84 | 1005.2 |
| 20260505184110 | 61 | 30 | 4.3 | 8.7 | 0.00 | 0.02 | 0.02 | 83 | 1005.3 |
| 20260505183111 | 62 | 9 | 3.5 | 8.7 | 0.00 | 0.02 | 0.02 | 82 | 1005.4 |
| 20260505182110 | 62 | 50 | 3.5 | 10.4 | 0.00 | 0.02 | 0.02 | 82 | 1005.3 |
| 20260505181109 | 62 | 50 | 3.5 | 6.1 | 0.00 | 0.02 | 0.02 | 82 | 1005.4 |
| 20260505180109 | 63 | 5 | 3.5 | 10.4 | 0.00 | 0.02 | 0.02 | 81 | 1005.5 |
| 20260505175110 | 63 | 21 | 2.6 | 7.8 | 0.00 | 0.02 | 0.02 | 80 | 1005.5 |
| 20260505174111 | 64 | 360 | 4.3 | 8.7 | 0.00 | 0.02 | 0.02 | 78 | 1005.5 |
| 20260505173110 | 65 | 344 | 3.5 | 7.8 | 0.00 | 0.02 | 0.02 | 77 | 1005.7 |
| 20260505172110 | 65 | 342 | 1.7 | 7.0 | 0.00 | 0.02 | 0.02 | 74 | 1005.8 |
| 20260505171110 | 65 | 71 | 2.6 | 7.8 | 0.00 | 0.02 | 0.02 | 73 | 1005.6 |
| 20260505170109 | 66 | 53 | 4.3 | 7.8 | 0.00 | 0.02 | 0.02 | 73 | 1005.6 |